Location: Bonnesvalyn
(49.1218°N, 3.3177°E)
Time: 00:05:00
(UTC+00:00)

Cosmos 1606 - Pass Details

Date: 09 February 2023
Orbit: 487 x 509 km, 82.5° (Epoch: 01 April)

Event Time Altitude Azimuth Distance (km) Brightness Sun altitude
Rises 18:14:13 0° 351° (N) 2,656 6.3 -13.1°
Reaches altitude 10° 18:16:22 10° 353° (N) 1,763 5.4 -13.5°
Maximum altitude 18:20:14 77° 79° (E) 538 2.6 -14.1°
Drops below altitude 10° 18:24:04 10° 167° (SSE) 1,741 5.3 -14.7°
Sets 18:26:11 0° 168° (SSE) 2,619 6.2 -15.1°
